214P/LINEAR (2009)

Japanese version
Home page
Updated on May 9, 2009

---------------------------------------------------------------------

* Profile

Designation 214P/2009 B4
Recovery Date January 31, 2009
Magnitude 19.6 mag
Recoverer G. Hug (Scranton, KS, U.S.A.)

* Orbital Elements

Epoch 2009 Jan. 9.0 TT = JDT 2454840.5
T 2009 Jan. 5.61421 TT                                  MPC
q   1.8437316            (2000.0)            P               Q
n   0.14392861     Peri.  190.26815     -0.99839847     -0.01868620
a   3.6061017      Node   348.25901     +0.04780010     -0.78349348
e   0.4887189      Incl.   15.21326     -0.03025957     -0.62111899
P   6.85

* Magnitudes Graph

        m1 = 15.5 + 5 log d + 10.0 log r

---------------------------------------------------------------------

The orbital elements are published on M.P.E.C. 2009-C04.
The magnitudes graphs are made with Comet for Windows.

---------------------------------------------------------------------

Copyright(C) Seiichi Yoshida (comet@aerith.net). All rights reserved.